User: anonymous   Login
Location: Unspecified
(0.0000°N, 0.0000°E)
Time: 02:56:37
(UTC+00:00)
Language:

Early Bird - Orbit

View from above orbital plane
View from above orbital plane
View from above satellite
View from above satellite

Ground track
Ground track

The orbit data is extracted from the following two-line orbital elements,

1  1317U 65028A   18171.45327068 -.00000050 +00000-0 +00000-0 0  9992
2  1317 000.5814 032.2874 0003242 103.9566 179.7744 01.00363814097909
Epoch (UTC): 20 June 2018 10:52:42
Eccentricity: 0.0003242
inclination: 0.5814°
perigee height: 35747 km
apogee height: 35774 km
right ascension of ascending node: 32.2874°
argument of perigee: 103.9566°
revolutions per day: 1.00363814
mean anomaly at epoch: 179.7744°
orbit number at epoch: 9790

The dashed part of the orbit path shows where the satellite is in the earth's shadow,  

DLR